2024-247AD (62404 NORAD) Tracking and Keplerian Element Data

This shows tracking and keplerian element data for the satellite.

Feedback or suggestion? Click here.




ElementValue
Catalog62404
Name2024-247AD
Epoch Orbit681
Epoch Day34.29113334
Epoch Year2025
RAAN124.4021
Inclination44.9946
Eccentricity0.0003579
Argument of Perigee254.785
Mean Anonmoly105.2635
Mean Motion15.21347458
Decay Rate0.00025079
L11 62404U 24247AD 25034.29113334 .00025079 00000+0 11080-2 0 9999
L22 62404 44.9946 124.4021 0003579 254.7850 105.2635 15.21347458 6810



Live tracking and technical data element details for 2024-247AD (NORAD 62404). 2024-247AD can be tracked NOW for your location showing map with azimuth and elevation plus other details from your city location.







IsCatalogInMostPopularTable: catalog: 62404, numindb: 9
Update: records affected: 1



GetName: 62404 2024-247AD

Hit Count: updated at: Sun, 18 May 2025 22:25:07 GMT